DW2973 Weather Reports


time (UTC)temp
F
wind
direction
speed
knots
gust
knots
rain 1hr
in
rain 24hr
in
rain mn
in
humidity
%
barometer
mb
20260506033101 39 9 0.0 0.0 0.00 0.00 0.00 71 1010.3
20260506031553 39 9 0.0 0.0 0.00 0.00 0.00 70 1010.3
20260506030052 39 9 0.0 0.0 0.00 0.00 0.00 70 1010.5
20260506024551 40 9 0.0 0.0 0.00 0.00 0.00 70 1010.5
20260506023106 40 9 0.0 0.0 0.00 0.00 0.00 70 1010.6
20260506021548 41 9 0.0 0.0 0.00 0.00 0.00 69 1010.7
20260506020047 40 9 0.0 0.0 0.00 0.00 0.00 70 1010.8
20260506014545 41 9 0.0 0.0 0.00 0.00 0.00 70 1010.8
20260506013043 41 9 0.0 0.0 0.00 0.00 0.00 70 1010.6
20260506011540 42 9 0.0 0.0 0.00 0.00 0.00 72 1010.5
20260506010045 42 9 0.0 0.0 0.00 0.00 0.00 74 1010.4
20260506004558 42 9 0.0 0.0 0.00 0.00 0.00 76 1010.3
20260506003045 42 9 0.0 0.0 0.00 0.00 0.00 78 1010.4
20260506001539 42 9 0.0 0.0 0.00 0.00 0.00 79 1010.3
20260506000034 42 9 0.0 0.0 0.00 0.00 0.00 80 1010.3
20260505234555 42 9 0.0 0.0 0.00 0.00 0.00 80 1010.3
20260505233037 43 9 0.0 0.0 0.00 0.00 0.00 80 1010.2
20260505231534 43 9 0.0 0.0 0.00 0.00 0.00 81 1010.3
20260505230038 42 9 0.0 0.0 0.00 0.00 0.00 82 1010.3
20260505224529 42 9 0.0 0.0 0.00 0.00 0.00 83 1010.5
20260505223025 42 9 0.0 0.0 0.00 0.00 0.00 83 1010.7
20260505221524 42 9 0.0 0.0 0.00 0.00 0.00 83 1010.7
20260505220030 42 9 0.0 0.0 0.00 0.00 0.00 82 1010.7
20260505214524 42 9 0.0 0.0 0.00 0.00 0.00 82 1010.7
20260505213021 42 9 0.0 0.0 0.00 0.00 0.00 82 1010.7
20260505211521 42 9 0.0 0.0 0.00 0.00 0.00 82 1010.8
20260505210019 42 9 0.0 0.0 0.00 0.00 0.00 81 1010.9
20260505204518 43 9 0.0 0.0 0.00 0.00 0.00 80 1010.9
20260505203017 43 9 0.0 0.0 0.00 0.00 0.00 79 1010.8
20260505201522 43 9 0.0 0.0 0.00 0.00 0.00 77 1010.8
20260505200014 44 9 0.0 0.0 0.00 0.00 0.00 75 1010.9
20260505194528 45 9 0.0 0.0 0.00 0.00 0.00 73 1010.8
20260505193029 45 9 0.0 0.0 0.00 0.00 0.00 72 1010.7
20260505191509 46 9 0.0 0.0 0.00 0.00 0.00 69 1010.8
20260505190011 47 9 0.0 0.0 0.00 0.00 0.00 68 1010.7
20260505184507 48 9 0.0 0.0 0.00 0.00 0.00 65 1010.7
20260505183012 49 9 0.0 0.0 0.00 0.00 0.00 62 1010.5
20260505181508 50 360 0.0 0.0 0.00 0.00 0.00 61 1010.6
20260505180006 50 360 0.0 0.0 0.00 0.00 0.00 59 1010.6
20260505174508 51 360 0.0 0.0 0.00 0.00 0.00 58 1010.5
20260505173005 51 13 0.0 0.0 0.00 0.00 0.00 56 1010.5
20260505171505 52 355 0.0 0.0 0.00 0.00 0.00 56 1010.6
20260505170006 53 15 0.0 0.0 0.00 0.00 0.00 56 1010.6
20260505164503 53 346 0.0 0.0 0.00 0.00 0.00 58 1010.7
20260505163002 54 355 0.0 0.0 0.00 0.00 0.00 56 1010.6
20260505161502 53 350 0.0 0.0 0.00 0.00 0.00 61 1010.6
20260505153100 54 360 0.0 0.0 0.00 0.00 0.00 64 1010.8
20260505151558 54 33 0.0 0.0 0.00 0.00 0.00 64 1010.7
20260505124551 54 9 0.0 0.0 0.00 0.00 0.00 63 1010.8
20260505123108 54 323 0.9 0.0 0.00 0.00 0.00 65 1010.9
20260505121550 53 306 1.7 0.0 0.00 0.00 0.00 68 1010.9
20260505120050 53 5 0.9 0.0 0.00 0.00 0.00 66 1010.9
20260505114610 54 334 0.9 0.0 0.00 0.00 0.00 65 1010.9
20260505113049 54 350 0.9 0.0 0.00 0.00 0.00 66 1011.0
20260505111602 55 5 0.9 0.0 0.00 0.00 0.00 64 1010.9
20260505101545 54 338 0.0 0.0 0.00 0.00 0.00 68 1011.0
20260505100043 54 17 0.9 0.0 0.00 0.00 0.00 67 1011.1
20260505094545 54 121 0.0 0.0 0.00 0.00 0.00 70 1011.0
20260505093040 54 30 0.9 0.0 0.00 0.00 0.00 70 1010.9
20260505091637 53 360 0.0 0.0 0.00 0.00 0.00 71 1010.9
20260505090039 52 315 0.0 0.0 0.00 0.00 0.00 74 1010.9
20260505084536 52 280 0.0 0.0 0.00 0.00 0.00 74 1011.0
20260505083044 51 330 0.9 0.0 0.00 0.00 0.00 75 1010.9
20260505081539 51 11 0.0 0.0 0.00 0.00 0.00 75 1010.8
20260505080037 51 337 0.0 0.0 0.00 0.00 0.00 77 1010.7
20260505074528 51 300 0.9 0.0 0.00 0.00 0.00 77 1010.6
20260505073027 50 10 0.9 0.0 0.00 0.00 0.00 77 1010.6
20260505071530 49 338 0.0 0.0 0.00 0.00 0.00 78 1010.5
20260505070031 49 313 0.9 0.0 0.00 0.00 0.00 80 1010.5
20260505064533 50 343 0.0 0.0 0.00 0.00 0.00 79 1010.4
20260505063023 49 317 0.0 0.0 0.00 0.00 0.00 81 1010.4
20260505061531 48 318 0.0 0.0 0.00 0.00 0.00 81 1010.4
20260505060026 47 360 0.0 0.0 0.00 0.00 0.00 82 1010.3
20260505054519 47 336 0.0 0.0 0.00 0.00 0.00 82 1010.3
20260505053021 47 304 0.0 0.0 0.00 0.00 0.00 82 1010.4
20260505051518 47 360 0.0 0.0 0.00 0.00 0.00 83 1010.4
20260505041525 46 355 0.0 0.0 0.00 0.00 0.00 84 1010.3
20260505040014 46 349 0.0 0.0 0.00 0.00 0.00 84 1010.3
20260505034513 46 349 0.0 0.0 0.00 0.00 0.00 84 1010.3